Date,TemperatureHighF,TemperatureAvgF,TemperatureLowF,DewpointHighF,DewpointAvgF,DewpointLowF,HumidityHigh,HumidityAvg,HumidityLow,PressureMaxIn,PressureMinIn,WindSpeedMaxMPH,WindSpeedAvgMPH,GustSpeedMaxMPH,PrecipitationSumIn
2013-3-1,31,26,23,-100,-100,-100,0,0,100,0.00,40.00,0,-999,0,1.00
2013-3-2,34,25,13,-100,-100,-100,0,0,100,0.00,40.00,0,-999,0,1.00
2013-3-3,33,30,28,-100,-100,-100,0,0,100,0.00,40.00,0,-999,0,1.00
2013-3-4,33,32,29,-100,-100,-100,0,0,100,0.00,40.00,0,-999,0,1.00
2013-3-5,36,30,27,-100,-100,-100,0,0,100,0.00,40.00,0,-999,0,1.00
2013-3-6,41,32,28,-100,-100,-100,0,0,100,0.00,40.00,0,-999,0,1.00
2013-3-7,34,29,27,-100,-100,-100,0,0,100,0.00,40.00,0,-999,0,1.00
2013-3-8,32,28,27,-100,-100,-100,0,0,100,0.00,40.00,0,-999,0,1.00
2013-3-9,35,29,26,-100,-100,-100,0,0,100,0.00,40.00,0,-999,0,1.00
2013-3-10,30,24,21,-100,-100,-100,0,0,100,0.00,40.00,0,-999,0,1.00
2013-3-11,36,25,16,-100,-100,-100,0,0,100,0.00,40.00,0,-999,0,1.00
2013-3-12,30,19,11,-100,-100,-100,0,0,100,0.00,40.00,0,-999,0,1.00
2013-3-13,27,12,-3,-100,-100,-100,0,0,100,0.00,40.00,0,-999,0,1.00
2013-3-14,27,17,10,-100,-100,-100,0,0,100,0.00,40.00,0,-999,0,1.00
2013-3-15,34,20,4,-100,-100,-100,0,0,100,0.00,40.00,0,-999,0,0.90
2013-3-16,29,16,-3,-100,-100,-100,0,0,100,0.00,40.00,0,-999,0,1.00
2013-3-17,39,21,9,-100,-100,-100,0,0,100,0.00,40.00,0,-999,0,1.00
2013-3-18,39,17,6,-100,-100,-100,0,0,100,0.00,40.00,0,-999,0,1.00
2013-3-19,26,15,7,-100,-100,-100,0,0,100,0.00,40.00,0,-999,0,1.00
2013-3-20,32,13,5,-100,-100,-100,0,0,100,0.00,40.00,0,-999,0,1.00
2013-3-21,40,16,4,-100,-100,-100,0,0,100,0.00,40.00,0,-999,0,1.00
2013-3-22,32,26,20,-100,-100,-100,0,0,100,0.00,40.00,0,-999,0,1.00
2013-3-23,39,26,21,-100,-100,-100,0,0,100,0.00,40.00,0,-999,0,1.00
2013-3-24,25,22,19,-100,-100,-100,0,0,100,0.00,40.00,0,-999,0,1.00
2013-3-25,18,11,4,-100,-100,-100,0,0,100,0.00,40.00,0,-999,0,1.00
2013-3-26,23,9,1,-100,-100,-100,0,0,100,0.00,40.00,0,-999,0,0.90
2013-3-27,26,11,-8,-100,-100,-100,0,0,100,0.00,40.00,0,-999,0,1.00
2013-3-28,27,24,20,-100,-100,-100,0,0,100,0.00,40.00,0,-999,0,1.10
2013-3-29,36,30,27,-100,-100,-100,0,0,100,0.00,40.00,0,-999,0,1.10
2013-3-30,39,31,27,-100,-100,-100,0,0,100,0.00,40.00,0,-999,0,1.00
2013-3-31,41,31,26,-100,-100,-100,0,0,100,0.00,40.00,0,-999,0,1.00